Location: Memmingen
(47.9830°N, 10.1733°E)
Time: 16:57:40
(UTC+01:00)

ISS - Pass Details

Date: 27 January 2018
Orbit: 402 x 407 km, 51.6° (Epoch: 25 February)

Event Time Altitude Azimuth Distance (km) Brightness Sun altitude
Rises 19:31:17 0° 241° (WSW) 2,310 1.0 -23.3°
Reaches altitude 10° 19:33:21 10° 239° (WSW) 1,454 -0.2 -23.7°
Enters shadow 19:35:15 32° 234° (SW) 718 -2.2 -24.0°
